Powrót do katalogu

USA 472

AktywnyMilitariaVLEO
NORAD 62541·PAYLOAD·🇺🇸 United States

Wystrzelony Jan 10, 2025 z Vandenberg Space Force Base

Loading…

Następne Przeloty (najbliższe 24 godziny)

TLE

NieaktualneSource: Mike McCants

Epoka: Aug 26, 2026, 01:25 UTC

1 62541U 25005K   26238.05958113 0.00000000  00000-0  00000-0 0    06
2 62541  70.0210 226.4362 0002500  50.2911 309.7089 14.96713408    09

Śledź USA 472 w czasie rzeczywistym z AllMySat

Download on the App Store